Home   Weather   Belém   Past weeks
Flag for Brazil

Past Weather in Belém, Pará, Brazil — Yesterday and Last 2 Weeks

Now
88 °F

Partly sunny.


Feels Like: 96 °F
Forecast: 86 / 76 °F
Wind: 8 mph from East

Location: Belem Aeroporto

Current Time: May 23, 2019 at 12:46:27 pm

Latest Report: May 23, 2019 at 12:00 pm


Visibility: N/A

Pressure: 29.89 "Hg

Humidity: 62%

Dew Point: 73 °F

Location of BelémLocation

Past Weather in Belém — Graph

°F

Belém Temperature Yesterday

Maximum temperature yesterday: 88 °F (at 12:00 pm)
Minimum temperature yesterday: 75 °F (at 6:00 am)
Average temperature yesterday: 79 °F

High & Low Weather Summary for the Past Weeks

 TemperatureHumidityPressure
High90 °F (May 8, 2:00 pm)100% (May 10, 5:00 pm)29.95 "Hg (May 10, 5:00 pm)
Low73 °F (May 13, 6:00 am)59% (May 8, 2:00 pm)29.74 "Hg (May 10, 2:00 pm)
Average79 °F88%29.86 "Hg
* Reported May 8 11:00 am — May 23 11:00 am, Belém. Weather by CustomWeather, © 2019

Note: Actual official high and low records may vary slightly from our data, if they occured in-between our weather recording intervals... More about our weather records

Advertising

Belém Weather History for the Previous 24 Hours

Scroll right to see more
 ConditionsComfort  
Time TempWeatherWind HumidityBarometerVisibility
11:00 am
Thu, May 23
86 °FPartly sunny.12 mph66%29.92 "HgN/A
10:00 am84 °FPartly sunny.9 mph70%29.92 "HgN/A
9:00 am82 °FScattered clouds.8 mph79%29.92 "HgN/A
8:00 am79 °FScattered clouds.6 mph84%29.89 "HgN/A
7:00 am75 °FPartly sunny.2 mph94%29.89 "HgN/A
6:00 am73 °FClear.5 mph94%29.86 "Hg10 mi
5:00 am73 °FClear.2 mph94%29.86 "Hg10 mi
4:00 am73 °FClear.5 mph94%29.83 "Hg10 mi
3:00 am73 °FClear.3 mph94%29.83 "Hg10 mi
2:00 am73 °FClear.3 mph94%29.86 "Hg10 mi
1:00 am75 °FClear.2 mph89%29.89 "Hg10 mi
12:00 am75 °FClear.2 mph89%29.92 "Hg10 mi
11:00 pm
Wed, May 22
75 °FClear.2 mph89%29.92 "Hg10 mi
10:00 pm75 °FClear.3 mph89%29.92 "Hg10 mi
9:00 pm75 °FPartly cloudy.No wind89%29.89 "HgN/A
8:00 pm75 °FPartly cloudy.3 mph89%29.86 "HgN/A
7:00 pm75 °FLight rain. Mostly cloudy.7 mph89%29.86 "Hg5 mi
5:00 pm75 °FLight rain. Broken clouds.7 mph94%N/A3 mi
4:23 pm75 °FLight rain. Broken clouds.10 mph94%N/A3 mi
3:25 pm77 °FHeavy rain. Broken clouds.18 mph89%29.83 "Hg1 mi
3:00 pm84 °FScattered clouds.14 mph79%29.80 "HgN/A
2:00 pm86 °FScattered clouds.7 mph75%29.83 "HgN/A
1:00 pm88 °FScattered clouds.8 mph62%29.86 "HgN/A
12:00 pm88 °FPartly sunny.7 mph66%29.89 "HgN/A
Weather by CustomWeather, © 2019

See weather overview